Regional Weather Roundup
Issued by NWS

Home | Current Version | Previous Version | Graphics & Text | Print | Product List | Glossary On
Versions: 1 2 3 4 5 6 7 8 9 10 11 12 13 14 15 16 17 18 19 20 21 22 23 24 25 26 27 28 29 30 31 32 33 34 35 36 37 38 39 40 41 42 43 44 45 46 47 48 49 50
547
ASUS43 KMKX 240100
RWRWI

WISCONSIN REGIONAL WEATHER ROUNDUP
NATIONAL WEATHER SERVICE MILWAUKEE/SULLIVAN WI
800 PM CDT MON MAY 23 2016

NOTE: "FAIR" INDICATES FEW OR NO CLOUDS BELOW 12,000 FEET WITH NO
SIGNIFICANT WEATHER AND/OR OBSTRUCTIONS TO VISIBILITY.

WIZ001-002-006>008-014>016-023>028-240200-
NORTHWEST WISCONSIN

CITY           SKY/WX    TMP DP  RH WIND       PRES   REMARKS
SUPERIOR ARPT  LGT RAIN  69  63  82 SW7       29.73R
ASHLAND        LGT RAIN  65  65 100 SE6       29.77S
HAYWARD        CLOUDY    66  61  84 S7        29.79R
SIREN          MOCLDY    69  66  91 CALM      29.75S
CUMBERLAND     CLOUDY    70  59  68 SW7       29.78R
RICE LAKE      CLOUDY    74  59  60 SW10G20   29.78S
CHETEK         LGT RAIN  67  65  92 CALM      29.78R
LADYSMITH      CLOUDY    74  58  58 W6        29.79R
EAU CLAIRE     NOT AVBL
MENOMONIE      CLOUDY    73  64  73 SW7       29.77R
NEW RICHMOND   CLOUDY    71  58  63 SW12      29.76S
OSCEOLA        MOCLDY    73  60  64 SW8       29.77F
$$

WIZ003>005-009-010-017-018-240200-
NORTH CENTRAL WISCONSIN

CITY           SKY/WX    TMP DP  RH WIND       PRES   REMARKS
MANITOWISH WTR CLOUDY    68  59  73 CALM      29.80S
ARBOR VITAE    CLOUDY    77  46  33 S9G18     29.81S
WOODRUFF       CLOUDY    77  46  33 S9G18     29.81S
RHINELANDER    CLOUDY    77  44  30 SW8       29.83S
EAGLE RIVER      N/A     77  38  24 SW9G17    29.82R
LAND O LAKES   CLOUDY    78  40  26 SW12G18   29.82S
PHILLIPS       CLOUDY    77  52  41 S9G16     29.78F
TOMAHAWK       MOCLDY    75  47  37 S7        29.82S
MEDFORD        MOCLDY    77  47  34 S13       29.81F
MERRILL        CLOUDY    77  47  35 SW7       29.83S
$$

WIZ029-030-035-036-043>047-240200-
CENTRAL WISCONSIN

CITY           SKY/WX    TMP DP  RH WIND       PRES   REMARKS
WAUSAU         CLOUDY    79  45  29 S13       29.81S
MOSINEE        NOT AVBL
MARSHFIELD     PTCLDY    76  45  33 S12       29.81F
STEVENS POINT  PTCLDY    78  43  29 SW15      29.84S
WAUPACA        CLOUDY    79  44  28 S6        29.84S
WAUTOMA        CLOUDY    79  47  32 S7        29.84F
WISC RAPIDS    CLOUDY    78  43  28 S9        29.83F
CAMP DOUGLAS   NOT AVBL
$$

WIZ011>013-019>022-031-037>040-048>050-240200-
NORTHEAST WISCONSIN

CITY           SKY/WX    TMP DP  RH WIND       PRES   REMARKS
ANTIGO         CLOUDY    76  46  34 S10G17    29.84S
SHAWANO        CLOUDY    81  42  25 S6G16     29.84S
OCONTO         CLOUDY    69  48  47 S9        29.84S
STURGEON BAY   NOT AVBL
GREEN BAY      CLEAR     73  45  36 S13       29.85S
MANITOWOC      NOT AVBL
APPLETON       PTCLDY    73  46  38 S13       29.84F
CLINTONVILLE   CLOUDY    79  41  25 S10       29.84S
OSHKOSH        CLEAR     72  48  42 S9        29.85F
$$

WIZ032>034-041-042-053>061-240200-
SOUTHWEST WISCONSIN

CITY           SKY/WX    TMP DP  RH WIND       PRES   REMARKS
LA CROSSE      PTCLDY    74  55  51 SW16      29.80F
SPARTA         PTCLDY    80  46  30 S7        29.82S
VIROQUA        PTCLDY    78  43  29 S10       29.84S
BOSCOBEL       NOT AVBL
PRAIRIE DU CHI PTCLDY    80  42  26 S6        29.82S
PLATTEVILLE    CLEAR     79  43  28 SW12      29.86F
$$

WIZ056-057-062-063-064-067-068-240200-
SOUTH CENTRAL WISCONSIN

CITY           SKY/WX    TMP DP  RH WIND       PRES   REMARKS
REEDSBURG      CLEAR     78  46  31 S8        29.84F
BARABOO/DELLS  CLEAR     79  41  26 SW8       29.85F
LONE ROCK      NOT AVBL
MINERAL POINT  CLEAR     79  43  27 S6        29.87F
MADISON        CLOUDY    78  47  33 S7        29.86S
MIDDLETON      CLOUDY    80  42  26 SW8       29.87F
WATERTOWN      CLOUDY    75  48  38 S6        29.87F
MONROE         CLEAR     79  41  25 SW12      29.88S
JANESVILLE     CLEAR     79  43  27 S5        29.88F
$$

WIZ051-052-058>065-066-070>072-240200-
SOUTHEAST WISCONSIN

CITY           SKY/WX    TMP DP  RH WIND       PRES   REMARKS
MILWAUKEE      MOCLDY    69  36  29 S8        29.91F
WAUKESHA       CLEAR     70  39  32 SE12      29.91F
MILWAUKEE/TIMM CLEAR     73  30  20 S10       29.91S
RACINE         CLEAR     66  37  34 S7        29.93F
BURLINGTON     PTCLDY    72  42  33 SE7       29.91S
KENOSHA        CLEAR     68  39  34 SE7       29.91F
FOND DU LAC    CLEAR     73  48  41 S8        29.86F
SHEBOYGAN      CLEAR     66  37  34 S8        29.90F
WEST BEND      CLEAR     70  41  35 SE5       29.90S
JUNEAU         CLOUDY    75  47  36 S9        29.89F
$$

LSZ147-162-240200-
LAKE SUPERIOR

STATION/POSITION TIME  TEMP    WIND        PRES    WAVE
                       AIR SEA DIR/SP/G            HT/PER
                 (UTC) (F)     (DEG/KT/KT) (MB)    (FT/S)
W MID LAKE BUOY  2250   55 38  300/  4/  4 1006.3F   1/ 4
DEVILS ISLAND    0000   63     200/ 13/ 19 1008.2R
SAXON HARBOR     0000   63     330/  2/  9 1008.1R
$$

LMZ867-665-643>646-240200-
LAKE MICHIGAN

STATION/POSITION TIME  TEMP    WIND        PRES    WAVE
                       AIR SEA DIR/SP/G            HT/PER
                 (UTC) (F)     (DEG/KT/KT) (MB)    (FT/S)
CHAMBERS ISLAND  0000   67     150/  8/ 16 1010.8S
N MID LAKE BUOY  2250   52 45  200/ 16/ 17 1012.3F   2/ 4
NORTHPORT PIER   0000   64     160/ 11/ 22 1011.5F
KEWAUNEE LAKESHO 0000   55     170/ 14/ 16 1011.7F
SHEBOYGAN LAKESH 0000   58     180/ 19/ 19 1013.1F
PORT WASHINGTON  0000   60     190/  4/  7 1013.5
S MID LAKE BUOY  2250   61 53  140/  4/  4 1014.0F   0
KENOSHA   LAKESH 0000   62     180/  9/ 12 1012.9F
$$

TC  - TEMPERATURE IN CELSIUS
VSB - VISIBILITY IN STATUTE MILES
WCI - WIND CHILL INDEX
HX  - HEAT INDEX





USA.gov is the U.S. government's official web portal to all federal, state and local government web resources and services.